Fort Eustis, VA

3:48 AM EST on November 20, 2019 (GMT -0500)
Felker Army Air Field

Weather History for KFAF - September, 2019

Change the Weather History Date:

Wednesday, September 18, 2019

  Actual Average Record
Temperature  
Mean Temperature 69 °F -  
Max Temperature 76 °F 77 °F 93 °F (2016)
Min Temperature 63 °F 62 °F 53 °F (2000)
Cooling Degree Days 4    
Growing Degree Days 19 (Base 50)    
Moisture  
Dew Point 51 °F    
Average Humidity 54    
Maximum Humidity 69    
Minimum Humidity 36    
Precipitation  
Precipitation 0.00 in - - ()
Sea Level Pressure  
Sea Level Pressure 30.15 in    
Wind  
Wind Speed 5 mph ()    
Max Wind Speed 10 mph    
Max Gust Speed 16 mph    
Visibility 10.0 miles    
Events      
Averages and records for this station are not official NWS values.
T = Trace of Precipitation, MM = Missing Value Source: Averaged Metar Reports

Daily Weather History Graph

Daily Weather History Graph

Search for Another Location

Airport or City:

Astronomy

Sep. 18, 2019 Rise Set
Actual Time 6:50 AM EDT 7:09 PM EDT
Civil Twilight 6:24 AM EDT 7:35 PM EDT
Nautical Twilight 5:54 AM EDT 8:06 PM EDT
Astronomical Twilight 5:23 AM EDT 8:37 PM EDT
Moon 9:48 PM EDT (9/18) 10:46 AM EDT (9/18)
Length of Visible Light 13h 11m
Length of Day
12h 19m
Waning Gibbous, 82% of the Moon is Illuminated
Sep 18
Waning Gibbous
Sep 21
Last Quarter
Sep 28
New
Oct 5
First Quarter
Oct 13
Full

Hourly Weather History & Observations

Time (EDT) Temp. Dew Point Humidity Pressure Visibility Wind Dir Wind Speed Gust Speed Precip Events Conditions
12:56 AM 67.5 °F 50.2 °F 54% 30.08 in 10.0 mi NE 3.5 mph - N/A   Clear
1:56 AM 65.1 °F 51.8 °F 62% 30.08 in 10.0 mi NNE 3.5 mph - N/A   Clear
2:56 AM 64.9 °F 52.5 °F 64% 30.09 in 10.0 mi Calm Calm - N/A   Clear
3:56 AM 64.0 °F 52.5 °F 66% 30.08 in 10.0 mi NE 3.5 mph - N/A   Clear
4:56 AM 64.0 °F 51.6 °F 64% 30.09 in 10.0 mi NE 3.5 mph - N/A   Clear
5:56 AM 63.3 °F 51.8 °F 66% 30.10 in 10.0 mi Calm Calm - N/A   Clear
6:56 AM 63.0 °F 52.7 °F 69% 30.11 in 10.0 mi NNE 3.5 mph - N/A   Clear
7:56 AM 65.3 °F 52.9 °F 64% 30.14 in 10.0 mi Calm Calm - N/A   Clear
8:56 AM 70.5 °F 52.0 °F 52% 30.15 in 10.0 mi ENE 8.1 mph - N/A   Partly Cloudy
9:56 AM 72.9 °F 48.4 °F 42% 30.15 in 10.0 mi ENE 10.4 mph - N/A   Partly Cloudy
10:56 AM 73.2 °F 49.3 °F 43% 30.16 in 10.0 mi NE 6.9 mph - N/A   Mostly Cloudy
11:56 AM 73.0 °F 48.6 °F 42% 30.16 in 10.0 mi ENE 9.2 mph - N/A   Mostly Cloudy
12:56 PM 73.0 °F 48.6 °F 42% 30.16 in 10.0 mi NE 9.2 mph 16.1 mph N/A   Mostly Cloudy
1:56 PM 75.9 °F 46.9 °F 36% 30.15 in 10.0 mi ENE 10.4 mph 16.1 mph N/A   Mostly Cloudy
2:56 PM 73.8 °F 51.1 °F 45% 30.15 in 10.0 mi NE 10.4 mph - N/A   Mostly Cloudy
3:56 PM 72.3 °F 52.0 °F 49% 30.15 in 10.0 mi NE 10.4 mph - N/A   Mostly Cloudy
4:56 PM 73.2 °F 51.8 °F 47% 30.15 in 10.0 mi ENE 10.4 mph 16.1 mph N/A   Mostly Cloudy
5:56 PM 71.8 °F 51.6 °F 49% 30.16 in 10.0 mi ENE 6.9 mph - N/A   Mostly Cloudy
6:56 PM 70.2 °F 52.2 °F 53% 30.17 in 10.0 mi ENE 6.9 mph - N/A   Scattered Clouds
7:56 PM 68.4 °F 52.0 °F 56% 30.18 in 10.0 mi East 4.6 mph - N/A   Scattered Clouds
8:56 PM 67.3 °F 51.1 °F 56% 30.20 in 10.0 mi ENE 8.1 mph - N/A   Partly Cloudy
9:56 PM 66.9 °F 50.7 °F 56% 30.21 in 10.0 mi East 9.2 mph - N/A   Partly Cloudy
10:56 PM 66.6 °F 50.9 °F 57% 30.21 in 10.0 mi ENE 9.2 mph - N/A   Clear
11:56 PM 65.7 °F 50.9 °F 59% 30.22 in 10.0 mi East 6.9 mph - N/A   Clear